| time (UTC) | temp C | wind direction | speed KPH | gust KPH | rain 1hr cm | rain 24hr cm | rain mn cm | humidity % | barometer mb |
| 20260505112027 | 11 | 355 | 0.0 | 0.0 | 0.00 | 0.00 | 0.00 | 97 | 1017.7 |
| 20260505111616 | 10 | 355 | 0.0 | 0.0 | 0.00 | 0.00 | 0.00 | 97 | 1017.8 |
| 20260505111016 | 10 | 355 | 0.0 | 0.0 | 0.00 | 0.00 | 0.00 | 97 | 1017.7 |
| 20260505110521 | 10 | 355 | 0.0 | 0.0 | 0.00 | 0.00 | 0.00 | 97 | 1017.7 |
| 20260505110142 | 10 | 355 | 0.0 | 0.0 | 0.00 | 0.00 | 0.00 | 96 | 1017.6 |
| 20260505102026 | 10 | 338 | 0.0 | 3.2 | 0.00 | 0.00 | 0.00 | 95 | 1017.4 |
| 20260505101626 | 10 | 338 | 0.0 | 1.6 | 0.00 | 0.00 | 0.00 | 95 | 1017.5 |
| 20260505101023 | 10 | 338 | 0.0 | 0.0 | 0.00 | 0.00 | 0.00 | 95 | 1017.6 |
| 20260505100539 | 10 | 339 | 0.0 | 0.0 | 0.00 | 0.00 | 0.00 | 95 | 1017.4 |
| 20260505100140 | 11 | 338 | 0.0 | 0.0 | 0.00 | 0.00 | 0.00 | 95 | 1017.5 |
| 20260505095522 | 11 | 338 | 0.0 | 3.2 | 0.00 | 0.00 | 0.00 | 94 | 1017.4 |
| 20260505095022 | 11 | 338 | 0.0 | 3.2 | 0.00 | 0.00 | 0.00 | 94 | 1017.5 |
| 20260505094639 | 11 | 338 | 0.0 | 0.0 | 0.00 | 0.00 | 0.00 | 94 | 1017.6 |
| 20260505094029 | 11 | 338 | 0.0 | 3.2 | 0.00 | 0.00 | 0.00 | 94 | 1017.4 |
| 20260505093519 | 11 | 338 | 0.0 | 3.2 | 0.00 | 0.00 | 0.00 | 93 | 1017.6 |
| 20260505093151 | 11 | 338 | 0.0 | 1.6 | 0.00 | 0.00 | 0.00 | 93 | 1017.5 |
| 20260505092541 | 11 | 338 | 0.0 | 0.0 | 0.00 | 0.00 | 0.00 | 93 | 1017.5 |
| 20260505092022 | 11 | 338 | 0.0 | 3.2 | 0.00 | 0.00 | 0.00 | 93 | 1017.5 |
| 20260505091647 | 11 | 338 | 0.0 | 3.2 | 0.00 | 0.00 | 0.00 | 94 | 1017.5 |
| 20260505091021 | 11 | 338 | 0.0 | 3.2 | 0.00 | 0.00 | 0.00 | 93 | 1017.3 |
| 20260505090516 | 11 | 338 | 0.0 | 1.6 | 0.00 | 0.00 | 0.00 | 93 | 1017.3 |
| 20260505090153 | 11 | 338 | 0.0 | 3.2 | 0.00 | 0.00 | 0.00 | 93 | 1017.6 |
| 20260505085522 | 11 | 339 | 0.0 | 3.2 | 0.00 | 0.00 | 0.00 | 92 | 1017.5 |
| 20260505085022 | 11 | 339 | 0.0 | 3.2 | 0.00 | 0.00 | 0.00 | 93 | 1017.3 |
| 20260505084651 | 11 | 338 | 0.0 | 3.2 | 0.00 | 0.00 | 0.00 | 92 | 1017.3 |
| 20260505084032 | 11 | 338 | 0.0 | 1.6 | 0.00 | 0.00 | 0.00 | 92 | 1017.2 |
| 20260505083519 | 11 | 338 | 0.0 | 3.2 | 0.00 | 0.00 | 0.00 | 93 | 1017.2 |
| 20260505083148 | 11 | 339 | 0.0 | 4.8 | 0.00 | 0.00 | 0.00 | 93 | 1017.2 |
| 20260505082535 | 11 | 339 | 0.0 | 4.8 | 0.00 | 0.00 | 0.00 | 94 | 1017.3 |
| 20260505082026 | 11 | 174 | 0.0 | 3.2 | 0.00 | 0.00 | 0.00 | 94 | 1017.2 |
| 20260505081702 | 11 | 174 | 0.0 | 3.2 | 0.00 | 0.00 | 0.00 | 94 | 1017.3 |
| 20260505081017 | 11 | 174 | 0.0 | 3.2 | 0.00 | 0.00 | 0.00 | 93 | 1017.2 |
| 20260505080540 | 12 | 174 | 1.6 | 3.2 | 0.00 | 0.00 | 0.00 | 94 | 1017.1 |
| 20260505080200 | 12 | 174 | 0.0 | 3.2 | 0.00 | 0.00 | 0.00 | 95 | 1017.0 |
| 20260505075528 | 12 | 174 | 0.0 | 4.8 | 0.00 | 0.00 | 0.00 | 95 | 1017.0 |
| 20260505075026 | 11 | 174 | 1.6 | 4.8 | 0.00 | 0.00 | 0.00 | 96 | 1017.1 |
| 20260505074636 | 11 | 177 | 1.6 | 3.2 | 0.00 | 0.00 | 0.00 | 93 | 1016.9 |
| 20260505074039 | 11 | 180 | 0.0 | 0.0 | 0.00 | 0.00 | 0.00 | 93 | 1017.0 |
| 20260505073531 | 11 | 180 | 0.0 | 0.0 | 0.00 | 0.00 | 0.00 | 93 | 1016.7 |
| 20260505073108 | 11 | 180 | 0.0 | 0.0 | 0.00 | 0.00 | 0.00 | 92 | 1016.8 |
| 20260505072532 | 11 | 180 | 0.0 | 0.0 | 0.00 | 0.00 | 0.00 | 91 | 1016.7 |
| 20260505072015 | 11 | 180 | 0.0 | 0.0 | 0.00 | 0.00 | 0.00 | 91 | 1016.8 |
| 20260505071636 | 12 | 180 | 0.0 | 0.0 | 0.00 | 0.00 | 0.00 | 91 | 1016.8 |
| 20260505071027 | 12 | 180 | 0.0 | 0.0 | 0.00 | 0.00 | 0.00 | 91 | 1016.8 |
| 20260505070540 | 12 | 180 | 0.0 | 0.0 | 0.00 | 0.00 | 0.00 | 91 | 1016.8 |
| 20260505070201 | 12 | 180 | 0.0 | 0.0 | 0.00 | 0.00 | 0.00 | 90 | 1016.9 |
| 20260505065527 | 12 | 180 | 0.0 | 0.0 | 0.00 | 0.00 | 0.00 | 90 | 1016.9 |
| 20260505065030 | 12 | 180 | 0.0 | 0.0 | 0.00 | 0.00 | 0.00 | 89 | 1016.9 |
| 20260505064635 | 12 | 180 | 0.0 | 3.2 | 0.00 | 0.00 | 0.00 | 89 | 1016.8 |
| 20260505064027 | 12 | 180 | 0.0 | 3.2 | 0.00 | 0.00 | 0.00 | 89 | 1016.8 |
| 20260505063545 | 12 | 180 | 0.0 | 3.2 | 0.00 | 0.00 | 0.00 | 89 | 1017.1 |
| 20260505063143 | 12 | 180 | 1.6 | 3.2 | 0.00 | 0.00 | 0.00 | 88 | 1016.8 |
| 20260505062518 | 12 | 180 | 0.0 | 3.2 | 0.00 | 0.00 | 0.00 | 87 | 1017.0 |
| 20260505062031 | 13 | 180 | 0.0 | 3.2 | 0.00 | 0.00 | 0.00 | 87 | 1016.9 |
| 20260505061639 | 13 | 180 | 1.6 | 3.2 | 0.00 | 0.00 | 0.00 | 87 | 1017.2 |
| 20260505061022 | 13 | 180 | 1.6 | 3.2 | 0.00 | 0.00 | 0.00 | 85 | 1017.2 |
| 20260505060521 | 13 | 180 | 0.0 | 3.2 | 0.00 | 0.00 | 0.00 | 85 | 1017.1 |
| 20260505060149 | 13 | 180 | 1.6 | 3.2 | 0.00 | 0.00 | 0.00 | 81 | 1017.1 |
| 20260505055540 | 13 | 180 | 0.0 | 0.0 | 0.00 | 0.00 | 0.00 | 82 | 1017.1 |
| 20260505055038 | 13 | 180 | 0.0 | 0.0 | 0.00 | 0.00 | 0.00 | 80 | 1017.0 |
| 20260505054623 | 13 | 180 | 0.0 | 0.0 | 0.00 | 0.00 | 0.00 | 79 | 1017.0 |
| 20260505054018 | 13 | 180 | 0.0 | 0.0 | 0.00 | 0.00 | 0.00 | 79 | 1017.0 |
| 20260505053527 | 13 | 180 | 0.0 | 0.0 | 0.00 | 0.00 | 0.00 | 80 | 1017.0 |
| 20260505053129 | 14 | 180 | 0.0 | 0.0 | 0.00 | 0.00 | 0.00 | 79 | 1017.0 |
| 20260505052533 | 14 | 180 | 0.0 | 0.0 | 0.00 | 0.00 | 0.00 | 77 | 1016.9 |
| 20260505052041 | 14 | 180 | 0.0 | 0.0 | 0.00 | 0.00 | 0.00 | 77 | 1017.1 |
| 20260505051643 | 14 | 180 | 0.0 | 0.0 | 0.00 | 0.00 | 0.00 | 76 | 1017.1 |
| 20260505051030 | 15 | 180 | 0.0 | 0.0 | 0.00 | 0.00 | 0.00 | 75 | 1017.2 |
| 20260505050537 | 15 | 180 | 0.0 | 0.0 | 0.00 | 0.00 | 0.00 | 74 | 1017.2 |
| 20260505050132 | 15 | 180 | 0.0 | 0.0 | 0.00 | 0.00 | 0.00 | 73 | 1017.2 |
| 20260505041705 | 16 | 180 | 0.0 | 1.6 | 0.00 | 0.00 | 0.00 | 69 | 1017.0 |
| 20260505041022 | 16 | 180 | 0.0 | 1.6 | 0.00 | 0.00 | 0.00 | 71 | 1017.2 |
| 20260505040537 | 16 | 180 | 0.0 | 1.6 | 0.00 | 0.00 | 0.00 | 72 | 1017.2 |
| 20260505040230 | 16 | 180 | 0.0 | 3.2 | 0.00 | 0.00 | 0.00 | 70 | 1017.0 |
| 20260505035524 | 16 | 180 | 0.0 | 1.6 | 0.00 | 0.00 | 0.00 | 69 | 1017.1 |
| 20260505035027 | 16 | 180 | 0.0 | 1.6 | 0.00 | 0.00 | 0.00 | 69 | 1017.2 |
| 20260505034630 | 16 | 180 | 0.0 | 1.6 | 0.00 | 0.00 | 0.00 | 69 | 1017.2 |
| 20260505034040 | 16 | 180 | 0.0 | 0.0 | 0.00 | 0.00 | 0.00 | 70 | 1017.1 |
| 20260505033532 | 16 | 180 | 0.0 | 0.0 | 0.00 | 0.00 | 0.00 | 70 | 1017.3 |
| 20260505033152 | 17 | 180 | 0.0 | 3.2 | 0.00 | 0.00 | 0.00 | 69 | 1017.3 |
| 20260505032531 | 17 | 180 | 0.0 | 3.2 | 0.00 | 0.00 | 0.00 | 70 | 1017.3 |
| 20260505032038 | 17 | 180 | 0.0 | 3.2 | 0.00 | 0.00 | 0.00 | 71 | 1017.2 |
| 20260505031632 | 17 | 180 | 0.0 | 3.2 | 0.00 | 0.00 | 0.00 | 71 | 1017.3 |
| 20260505031028 | 17 | 180 | 0.0 | 4.8 | 0.00 | 0.00 | 0.00 | 70 | 1017.3 |
| 20260505030529 | 17 | 180 | 0.0 | 4.8 | 0.00 | 0.00 | 0.00 | 68 | 1017.2 |
| 20260505030203 | 17 | 241 | 0.0 | 3.2 | 0.00 | 0.00 | 0.00 | 68 | 1017.3 |
| 20260505025519 | 17 | 241 | 0.0 | 3.2 | 0.00 | 0.00 | 0.00 | 68 | 1017.2 |
| 20260505025038 | 17 | 241 | 0.0 | 3.2 | 0.00 | 0.00 | 0.00 | 70 | 1017.2 |
| 20260505024619 | 17 | 241 | 0.0 | 0.0 | 0.00 | 0.00 | 0.00 | 70 | 1017.1 |
| 20260505024040 | 17 | 241 | 0.0 | 0.0 | 0.00 | 0.00 | 0.00 | 71 | 1017.3 |
| 20260505023521 | 17 | 241 | 0.0 | 0.0 | 0.00 | 0.00 | 0.00 | 71 | 1017.2 |
| 20260505023151 | 17 | 241 | 0.0 | 0.0 | 0.00 | 0.00 | 0.00 | 72 | 1017.2 |
| 20260505022519 | 17 | 241 | 0.0 | 0.0 | 0.00 | 0.00 | 0.00 | 74 | 1017.0 |
| 20260505022032 | 17 | 241 | 0.0 | 0.0 | 0.00 | 0.00 | 0.00 | 74 | 1017.1 |
| 20260505021641 | 17 | 241 | 0.0 | 0.0 | 0.00 | 0.00 | 0.00 | 72 | 1016.9 |
| 20260505021019 | 17 | 241 | 0.0 | 0.0 | 0.00 | 0.00 | 0.00 | 70 | 1017.0 |
| 20260505020539 | 17 | 241 | 0.0 | 0.0 | 0.00 | 0.00 | 0.00 | 69 | 1016.9 |
| 20260505020149 | 18 | 241 | 0.0 | 0.0 | 0.00 | 0.00 | 0.00 | 67 | 1016.8 |
| 20260505015529 | 18 | 241 | 0.0 | 0.0 | 0.00 | 0.00 | 0.00 | 66 | 1016.8 |
| 20260505015023 | 18 | 241 | 0.0 | 0.0 | 0.00 | 0.00 | 0.00 | 66 | 1016.7 |
| 20260505014644 | 18 | 241 | 0.0 | 0.0 | 0.00 | 0.00 | 0.00 | 66 | 1016.6 |
| 20260505014021 | 18 | 241 | 0.0 | 1.6 | 0.00 | 0.00 | 0.00 | 68 | 1016.7 |
| 20260505013523 | 18 | 241 | 0.0 | 6.4 | 0.00 | 0.00 | 0.00 | 67 | 1016.7 |
| 20260505013137 | 18 | 241 | 0.0 | 6.4 | 0.00 | 0.00 | 0.00 | 66 | 1016.6 |
| 20260505012538 | 18 | 241 | 0.0 | 6.4 | 0.00 | 0.00 | 0.00 | 66 | 1016.7 |
| 20260505012028 | 18 | 78 | 0.0 | 4.8 | 0.00 | 0.00 | 0.00 | 68 | 1016.5 |
| 20260505011651 | 18 | 78 | 0.0 | 4.8 | 0.00 | 0.00 | 0.00 | 68 | 1016.5 |
| 20260505011025 | 18 | 78 | 0.0 | 0.0 | 0.00 | 0.00 | 0.00 | 66 | 1016.4 |
| 20260505010544 | 19 | 78 | 0.0 | 0.0 | 0.00 | 0.00 | 0.00 | 65 | 1016.3 |
| 20260505010227 | 19 | 78 | 0.0 | 3.2 | 0.00 | 0.00 | 0.00 | 66 | 1016.3 |
| 20260505005520 | 19 | 78 | 0.0 | 3.2 | 0.00 | 0.00 | 0.00 | 67 | 1016.4 |
| 20260505005043 | 19 | 78 | 0.0 | 3.2 | 0.00 | 0.00 | 0.00 | 64 | 1016.2 |
| 20260505004625 | 19 | 78 | 0.0 | 1.6 | 0.00 | 0.00 | 0.00 | 63 | 1016.5 |
| 20260505004022 | 20 | 78 | 0.0 | 0.0 | 0.00 | 0.00 | 0.00 | 67 | 1016.2 |
| 20260505003537 | 20 | 78 | 0.0 | 0.0 | 0.00 | 0.00 | 0.00 | 66 | 1016.3 |
| 20260505003138 | 20 | 78 | 0.0 | 0.0 | 0.00 | 0.00 | 0.00 | 66 | 1016.2 |
| 20260505002540 | 20 | 78 | 0.0 | 0.0 | 0.00 | 0.00 | 0.00 | 62 | 1016.0 |
| 20260505002041 | 21 | 78 | 0.0 | 3.2 | 0.00 | 0.00 | 0.00 | 61 | 1015.9 |
| 20260505001654 | 21 | 78 | 0.0 | 3.2 | 0.00 | 0.00 | 0.00 | 61 | 1016.2 |
| 20260505001036 | 21 | 78 | 0.0 | 3.2 | 0.00 | 0.00 | 0.00 | 61 | 1016.0 |
| 20260505000529 | 21 | 51 | 0.0 | 3.2 | 0.00 | 0.00 | 0.00 | 61 | 1016.2 |
| 20260505000223 | 22 | 51 | 0.0 | 3.2 | 0.00 | 0.00 | 0.00 | 61 | 1016.2 |
| 20260504235528 | 22 | 229 | 0.0 | 3.2 | 0.00 | 0.00 | 0.00 | 57 | 1016.1 |
| 20260504235024 | 22 | 229 | 0.0 | 1.6 | 0.00 | 0.00 | 0.00 | 55 | 1016.1 |
| 20260504234649 | 22 | 229 | 0.0 | 1.6 | 0.00 | 0.00 | 0.00 | 56 | 1015.9 |
| 20260504234021 | 22 | 229 | 0.0 | 3.2 | 0.00 | 0.00 | 0.00 | 52 | 1015.8 |
| 20260504233529 | 22 | 229 | 0.0 | 3.2 | 0.00 | 0.00 | 0.00 | 51 | 1015.9 |
| 20260504233125 | 22 | 229 | 0.0 | 3.2 | 0.00 | 0.00 | 0.00 | 52 | 1015.9 |
| 20260504232529 | 23 | 229 | 0.0 | 3.2 | 0.00 | 0.00 | 0.00 | 52 | 1016.0 |
| 20260504232037 | 23 | 229 | 0.0 | 3.2 | 0.00 | 0.00 | 0.00 | 49 | 1016.0 |
| 20260504231703 | 23 | 229 | 1.6 | 4.8 | 0.00 | 0.00 | 0.00 | 48 | 1015.8 |
| 20260504231040 | 23 | 229 | 1.6 | 4.8 | 0.00 | 0.00 | 0.00 | 47 | 1016.0 |
| 20260504230525 | 23 | 234 | 1.6 | 4.8 | 0.00 | 0.00 | 0.00 | 50 | 1015.8 |
| 20260504230210 | 23 | 234 | 1.6 | 4.8 | 0.00 | 0.00 | 0.00 | 47 | 1015.8 |
| 20260504225526 | 24 | 242 | 1.6 | 6.4 | 0.00 | 0.00 | 0.00 | 46 | 1015.8 |
| 20260504225041 | 24 | 271 | 1.6 | 6.4 | 0.00 | 0.00 | 0.00 | 46 | 1015.8 |
| 20260504224701 | 24 | 253 | 1.6 | 4.8 | 0.00 | 0.00 | 0.00 | 45 | 1015.9 |
| 20260504224021 | 24 | 254 | 1.6 | 9.7 | 0.00 | 0.00 | 0.00 | 43 | 1015.8 |
| 20260504223539 | 24 | 259 | 1.6 | 8.0 | 0.00 | 0.00 | 0.00 | 45 | 1015.8 |
| 20260504223200 | 24 | 273 | 3.2 | 11.3 | 0.00 | 0.00 | 0.00 | 45 | 1016.0 |
| 20260504222527 | 24 | 267 | 3.2 | 11.3 | 0.00 | 0.00 | 0.00 | 45 | 1016.0 |
| 20260504222040 | 24 | 223 | 4.8 | 11.3 | 0.00 | 0.00 | 0.00 | 44 | 1015.9 |
| 20260504221711 | 24 | 206 | 6.4 | 11.3 | 0.00 | 0.00 | 0.00 | 44 | 1016.1 |
| 20260504221030 | 25 | 296 | 4.8 | 12.9 | 0.00 | 0.00 | 0.00 | 43 | 1016.0 |
| 20260504220522 | 25 | 255 | 4.8 | 9.7 | 0.00 | 0.00 | 0.00 | 43 | 1016.0 |
| 20260504220208 | 25 | 236 | 3.2 | 11.3 | 0.00 | 0.00 | 0.00 | 42 | 1015.9 |
| 20260504215532 | 24 | 277 | 4.8 | 12.9 | 0.00 | 0.00 | 0.00 | 43 | 1016.1 |
| 20260504215035 | 24 | 250 | 3.2 | 12.9 | 0.00 | 0.00 | 0.00 | 42 | 1016.0 |
| 20260504214654 | 24 | 248 | 1.6 | 4.8 | 0.00 | 0.00 | 0.00 | 43 | 1015.9 |
| 20260504214024 | 25 | 198 | 1.6 | 4.8 | 0.00 | 0.00 | 0.00 | 43 | 1015.9 |
| 20260504213531 | 25 | 198 | 1.6 | 6.4 | 0.00 | 0.00 | 0.00 | 43 | 1016.0 |
| 20260504213131 | 24 | 196 | 1.6 | 6.4 | 0.00 | 0.00 | 0.00 | 43 | 1016.0 |
| 20260504212523 | 24 | 191 | 1.6 | 9.7 | 0.00 | 0.00 | 0.00 | 43 | 1015.9 |
| 20260504212018 | 24 | 191 | 3.2 | 9.7 | 0.00 | 0.00 | 0.00 | 42 | 1015.9 |
| 20260504211633 | 24 | 211 | 3.2 | 8.0 | 0.00 | 0.00 | 0.00 | 42 | 1015.9 |
| 20260504211041 | 24 | 221 | 1.6 | 14.5 | 0.00 | 0.00 | 0.00 | 42 | 1015.8 |
| 20260504210531 | 24 | 254 | 1.6 | 14.5 | 0.00 | 0.00 | 0.00 | 44 | 1016.1 |
| 20260504210223 | 24 | 252 | 4.8 | 11.3 | 0.00 | 0.00 | 0.00 | 41 | 1015.9 |
| 20260504205522 | 24 | 180 | 3.2 | 9.7 | 0.00 | 0.00 | 0.00 | 42 | 1016.0 |
| 20260504205040 | 24 | 161 | 3.2 | 12.9 | 0.00 | 0.00 | 0.00 | 42 | 1016.1 |
| 20260504204641 | 24 | 189 | 4.8 | 12.9 | 0.00 | 0.00 | 0.00 | 43 | 1016.1 |
| 20260504204033 | 24 | 163 | 6.4 | 14.5 | 0.00 | 0.00 | 0.00 | 40 | 1016.2 |
| 20260504203529 | 24 | 230 | 3.2 | 14.5 | 0.00 | 0.00 | 0.00 | 42 | 1016.2 |
| 20260504203211 | 25 | 205 | 8.0 | 14.5 | 0.00 | 0.00 | 0.00 | 39 | 1016.4 |
| 20260504202537 | 25 | 208 | 4.8 | 11.3 | 0.00 | 0.00 | 0.00 | 42 | 1016.3 |
| 20260504202026 | 25 | 199 | 4.8 | 9.7 | 0.00 | 0.00 | 0.00 | 41 | 1016.3 |
| 20260504201630 | 25 | 239 | 3.2 | 11.3 | 0.00 | 0.00 | 0.00 | 40 | 1016.4 |
| 20260504201021 | 25 | 190 | 4.8 | 11.3 | 0.00 | 0.00 | 0.00 | 39 | 1016.3 |
| 20260504200535 | 25 | 197 | 4.8 | 12.9 | 0.00 | 0.00 | 0.00 | 36 | 1016.4 |
| 20260504200207 | 25 | 239 | 4.8 | 12.9 | 0.00 | 0.00 | 0.00 | 38 | 1016.4 |
| 20260504195525 | 25 | 256 | 3.2 | 12.9 | 0.00 | 0.00 | 0.00 | 38 | 1016.3 |
| 20260504195033 | 25 | 187 | 4.8 | 12.9 | 0.00 | 0.00 | 0.00 | 35 | 1016.6 |
| 20260504194709 | 25 | 199 | 4.8 | 12.9 | 0.00 | 0.00 | 0.00 | 35 | 1016.4 |
| 20260504194022 | 25 | 245 | 4.8 | 11.3 | 0.00 | 0.00 | 0.00 | 35 | 1016.5 |
| 20260504193537 | 25 | 186 | 4.8 | 9.7 | 0.00 | 0.00 | 0.00 | 35 | 1016.5 |
| 20260504193209 | 25 | 200 | 3.2 | 12.9 | 0.00 | 0.00 | 0.00 | 38 | 1016.7 |
| 20260504192518 | 24 | 279 | 4.8 | 12.9 | 0.00 | 0.00 | 0.00 | 42 | 1016.7 |
| 20260504192025 | 24 | 209 | 3.2 | 11.3 | 0.00 | 0.00 | 0.00 | 46 | 1016.9 |
| 20260504191653 | 24 | 226 | 4.8 | 8.0 | 0.00 | 0.00 | 0.00 | 40 | 1016.8 |
| 20260504191039 | 24 | 297 | 4.8 | 11.3 | 0.00 | 0.00 | 0.00 | 42 | 1017.0 |
| 20260504190522 | 24 | 292 | 4.8 | 11.3 | 0.00 | 0.00 | 0.00 | 41 | 1017.1 |
| 20260504190228 | 23 | 317 | 3.2 | 8.0 | 0.00 | 0.00 | 0.00 | 42 | 1017.2 |
| 20260504185537 | 24 | 244 | 3.2 | 11.3 | 0.00 | 0.00 | 0.00 | 42 | 1017.3 |
| 20260504185027 | 23 | 205 | 6.4 | 12.9 | 0.00 | 0.00 | 0.00 | 42 | 1017.4 |
| 20260504184649 | 23 | 182 | 3.2 | 12.9 | 0.00 | 0.00 | 0.00 | 43 | 1017.4 |
| 20260504184018 | 23 | 294 | 3.2 | 12.9 | 0.00 | 0.00 | 0.00 | 43 | 1017.6 |
| 20260504183526 | 23 | 123 | 4.8 | 9.7 | 0.00 | 0.00 | 0.00 | 41 | 1017.7 |
| 20260504183204 | 23 | 189 | 3.2 | 9.7 | 0.00 | 0.00 | 0.00 | 43 | 1017.8 |
| 20260504182533 | 23 | 210 | 1.6 | 6.4 | 0.00 | 0.00 | 0.00 | 43 | 1017.6 |
| 20260504182029 | 23 | 200 | 1.6 | 12.9 | 0.00 | 0.00 | 0.00 | 42 | 1017.8 |
| 20260504181659 | 23 | 167 | 4.8 | 12.9 | 0.00 | 0.00 | 0.00 | 41 | 1017.9 |
| 20260504181029 | 23 | 178 | 4.8 | 11.3 | 0.00 | 0.00 | 0.00 | 39 | 1018.0 |
| 20260504180530 | 23 | 219 | 4.8 | 11.3 | 0.00 | 0.00 | 0.00 | 44 | 1018.0 |
| 20260504180213 | 23 | 190 | 3.2 | 9.7 | 0.00 | 0.00 | 0.00 | 40 | 1018.1 |
| 20260504175526 | 23 | 186 | 4.8 | 8.0 | 0.00 | 0.00 | 0.00 | 43 | 1018.1 |
| 20260504175029 | 22 | 168 | 3.2 | 8.0 | 0.00 | 0.00 | 0.00 | 44 | 1018.3 |
| 20260504174656 | 22 | 207 | 3.2 | 8.0 | 0.00 | 0.00 | 0.00 | 43 | 1018.3 |
| 20260504174029 | 22 | 194 | 4.8 | 8.0 | 0.00 | 0.00 | 0.00 | 46 | 1018.5 |
| 20260504173522 | 22 | 169 | 3.2 | 9.7 | 0.00 | 0.00 | 0.00 | 45 | 1018.4 |
| 20260504173202 | 22 | 140 | 3.2 | 9.7 | 0.00 | 0.00 | 0.00 | 46 | 1018.3 |
| 20260504172525 | 22 | 209 | 0.0 | 8.0 | 0.00 | 0.00 | 0.00 | 48 | 1018.4 |
| 20260504172039 | 22 | 209 | 3.2 | 11.3 | 0.00 | 0.00 | 0.00 | 46 | 1018.3 |
| 20260504171701 | 22 | 192 | 3.2 | 11.3 | 0.00 | 0.00 | 0.00 | 46 | 1018.3 |
| 20260504171031 | 22 | 176 | 3.2 | 9.7 | 0.00 | 0.00 | 0.00 | 47 | 1018.3 |
| 20260504170547 | 22 | 202 | 4.8 | 9.7 | 0.00 | 0.00 | 0.00 | 49 | 1018.4 |
| 20260504170206 | 22 | 164 | 1.6 | 6.4 | 0.00 | 0.00 | 0.00 | 49 | 1018.5 |
| 20260504160226 | 20 | 309 | 3.2 | 8.0 | 0.00 | 0.00 | 0.00 | 53 | 1019.5 |
| 20260504151041 | 18 | 36 | 3.2 | 8.0 | 0.00 | 0.00 | 0.00 | 54 | 1019.6 |
| 20260504150528 | 18 | 295 | 1.6 | 8.0 | 0.00 | 0.00 | 0.00 | 57 | 1019.5 |
| 20260504150216 | 18 | 300 | 3.2 | 8.0 | 0.00 | 0.00 | 0.00 | 56 | 1019.6 |
| 20260504141041 | 16 | 300 | 3.2 | 8.0 | 0.00 | 0.00 | 0.00 | 65 | 1019.7 |
| 20260504140541 | 16 | 313 | 3.2 | 8.0 | 0.00 | 0.00 | 0.00 | 67 | 1019.6 |
| 20260504140222 | 16 | 308 | 1.6 | 6.4 | 0.00 | 0.00 | 0.00 | 69 | 1019.7 |
| 20260504130527 | 12 | 302 | 3.2 | 8.0 | 0.00 | 0.00 | 0.00 | 75 | 1019.7 |
| 20260504130210 | 12 | 296 | 4.8 | 11.3 | 0.00 | 0.00 | 0.00 | 75 | 1019.4 |
| 20260504120206 | 9 | 315 | 3.2 | 6.4 | 0.00 | 0.00 | 0.00 | 84 | 1019.2 |